Погода в Федоровке

Россия / Тверская область     56°49′04″N   37°14′09″E
темп.,
°C
ветер,
м/с
пор.,
м/с
влажн.,
%
обл.,
%
осадки,
мм/ч
давл.,
гПа
погр.,
м
20 апреля, вт
вт2000:00+4в411556 0.0 1025696
03:00+3в41161100 0.0 1025596
06:00+2в4106392 0.0 1024630
09:00+4в5958100 0.0 1024694
12:00+7в6954100 0.0 10221160
15:00+5в5983100 1.2 1021898
18:00+4в51296100 2.8 1019790
21:00+4в41297100 3.1 1017905
21 апреля, ср
ср2100:00+4в41297100 0.8 1014999
03:00+3всв51394100 3.4 1009900
06:000всв51499100 5.1 1005654
09:000св49100100 14.1 1002365
12:00+2ссв38100100 6.8 999575
15:00+1зюз4799100 8.8 1001451
18:00+2юз51199100 0.4 1005689
21:00+2юз41199100 0.6 1008760
22 апреля, чт
чт2200:00+3ю41298100 0.0 1010486
03:00+2ю41296100 0.0 1011343
06:00+2ю31097100 0.0 1012295
09:00+6ю41192100 0.0 1012448
12:00+8ююз5988100 0.4 10131163
15:00+8ююз598997 0.9 1014840
18:00+9ююз388669 0.1 1015474
21:00+5ю310950 0.1 1015179
23 апреля, пт
пт2300:00+4ююв28965 0.0 1015148
03:00+4ююв27979 0.0 1015122
06:00+4ююв28975 0.0 1016147
09:00+11ю4108079 0.0 1015460
12:00+15ю510697 0.3 10151217
15:00+16ююз596683 1.3 10131397
18:00+13ю5127285 1.0 1013776
21:00+11ююв5157914 1.0 1012608
24 апреля, сб
сб2400:00+10ююв5157999 0.0 1010790
03:00+7зюз3691100 0.0 1010408
06:00+5зюз3795100 4.1 1011742
09:00+4юз2392100 8.0 1011487
12:00+6ю3586100 1.3 1011669
15:00+8ю356662 1.8 10101248
18:00+7юз3683100 1.3 1009859
21:00+5юз2684100 2.0 1009255